Home   Weather   Whitstable   Past weeks

Flag for United Kingdom Past Weather in Whitstable, England, United Kingdom — Yesterday and Last 2 Weeks

Now
42 °F

Quite cool.


Feels Like: 36 °F
Forecast: 42 / 48 °F
Wind: 10 mph from Northwest

Location: Manston

Current Time: Dec 11, 2016 at 9:59:15 am

Latest Report: Dec 11, 2016 at 8:00 am


Visibility: 22 mi

Pressure: 30.25 "Hg

Humidity: 93%

Dew Point: 40 °F

Location of WhitstableLocation

Past Weather in Whitstable — Graph

°F

Whitstable Temperature Yesterday

Maximum temperature yesterday: 54 °F (at 11:00 am)
Minimum temperature yesterday: 47 °F (at 11:00 pm)
Average temperature yesterday: 52 °F

High & Low Weather Summary for the Past Weeks

 TemperatureHumidityPressure
High55 °F (Dec 8, 1:00 pm)100% (Nov 27, 4:00 am)30.58 "Hg (Nov 27, 4:00 am)
Low28 °F (Nov 30, 6:00 am)51% (Nov 28, 12:00 pm)30.02 "Hg (Dec 10, 10:00 pm)
Average43 °F85%30.32 "Hg
* Reported Nov 26 8:00 am — Dec 11 8:00 am, Whitstable, Weather by CustomWeather, © 2016

Note: Actual official high and low records may vary slightly from our data, if they occured in-between our weather recording intervals... More about our weather records

Advertising

Whitstable Weather History for the Previous 24 Hours

Scroll right to see more
 ConditionsComfort  
Time TempWeatherWind HumidityBarometerVisibility
8:00 am
Sun, Dec 11
42 °FQuite cool.10 mph93%30.25 "Hg22 mi
7:00 am43 °FQuite cool.14 mph93%30.23 "Hg19 mi
6:00 am42 °FQuite cool.12 mph95%30.21 "Hg16 mi
5:00 am44 °FQuite cool.14 mph93%30.21 "Hg17 mi
4:00 am44 °FQuite cool.12 mph92%30.20 "Hg28 mi
3:00 am44 °FQuite cool.10 mph94%30.19 "Hg31 mi
2:00 am45 °FQuite cool.13 mph94%30.16 "Hg28 mi
1:00 am46 °FCool.13 mph91%30.15 "Hg31 mi
12:00 am47 °FCool.15 mph92%30.12 "Hg16 mi
11:00 pm
Sat, Dec 10
47 °FLight rain. Overcast.22 mph93%30.09 "Hg7 mi
10:00 pm52 °FDrizzle. Overcast.21 mph96%30.02 "Hg4 mi
9:00 pm53 °FLight rain. Overcast.24 mph91%30.04 "Hg5 mi
8:00 pm53 °FCool.20 mph92%30.06 "Hg11 mi
7:00 pm52 °FRain showers. Overcast.15 mph91%30.09 "Hg10 mi
6:00 pm52 °FCool.15 mph92%30.11 "Hg8 mi
5:00 pm53 °FCool.15 mph93%30.12 "Hg7 mi
4:00 pm53 °FFog.12 mph98%30.14 "Hg4 mi
3:00 pm53 °FFog.13 mph99%30.15 "Hg2 mi
2:00 pm53 °FFog.8 mph97%30.16 "Hg3 mi
1:00 pm53 °FFog.9 mph97%30.18 "Hg3 mi
12:00 pm54 °FFog.12 mph96%30.20 "Hg4 mi
11:00 am54 °FFog.12 mph97%30.21 "Hg4 mi
10:00 am53 °FFog.9 mph97%30.22 "Hg4 mi
9:00 am52 °FFog.9 mph97%30.22 "Hg4 mi
Weather by CustomWeather, © 2016

See weather overviewHow to use our weather pages